Wind_Speed
14 16 19 21 23 25 26 27 27 26 27 28 29 30 32 34 35 37 39 39 40 41 43 43 42 42 43 43 43 43 44 44 44 44 44 44 43 43 42 42 42 42 43 43
13 15 18 20 22 24 25 25 27 27 28 29 30 30 31 33 34 35 37 38 40 40 40 41 42 42 42 43 43 43 43 44 43 44 44 44 44 44 44 43 42 42 43 43
15 15 18 20 21 23 25 25 25 27 28 29 30 31 31 33 34 34 35 37 39 41 40 40 41 42 42 42 43 44 43 43 43 44 44 45 45 45 45 45 44 44 43 44
15 16 19 19 20 22 23 24 25 26 28 29 29 29 30 32 34 35 35 36 37 38 39 39 40 41 41 42 42 43 44 44 44 43 43 44 45 46 46 46 46 46 45 44
15 16 17 18 20 22 23 23 24 25 27 28 28 29 29 30 31 33 33 34 35 36 37 38 39 40 40 40 41 42 43 43 43 44 44 44 44 45 45 46 46 46 45 45
14 15 15 17 19 21 23 24 24 24 25 26 27 27 27 28 30 30 31 32 34 35 36 36 38 39 40 40 40 40 41 42 42 43 44 45 45 45 45 45 45 45 46 46
12 14 14 16 17 18 21 22 23 23 24 25 26 25 25 25 27 29 31 32 33 34 35 35 36 37 38 39 39 40 40 40 41 43 44 45 45 45 45 45 44 44 45 45
10 12 13 14 15 16 18 20 22 23 24 25 26 26 26 26 27 28 29 30 32 33 34 35 35 35 36 36 37 38 38 39 39 40 41 43 43 43 43 43 43 43 44 44
10 11 12 14 15 16 17 18 21 23 23 25 26 26 26 27 27 27 27 28 30 31 32 34 34 35 35 35 35 35 36 37 38 39 39 40 41 41 41 41 42 42 43 43
10 11 12 14 15 16 17 18 19 21 22 23 24 26 27 27 27 27 27 27 28 29 30 31 33 34 35 35 35 35 35 35 37 38 38 39 39 40 40 40 41 42 42 42
11 11 12 14 15 16 17 18 19 20 21 22 23 23 25 26 27 27 27 27 27 27 28 30 31 33 34 35 35 35 34 34 35 36 37 37 38 38 39 40 41 41 41 41
11 11 12 13 14 15 16 17 18 19 20 22 23 23 22 23 23 24 25 26 27 27 27 27 29 31 33 34 34 35 35 34 34 35 35 36 37 38 38 39 40 41 41 41
11 12 12 13 14 16 16 17 18 19 19 20 22 23 22 22 23 24 24 25 26 27 27 27 28 29 31 32 33 33 34 34 34 34 35 36 36 37 38 39 39 40 40 40
12 12 12 13 14 16 17 17 18 18 19 19 20 22 23 23 23 24 24 25 25 26 26 26 26 27 28 29 31 32 32 33 33 34 33 34 34 36 37 37 37 38 38 39
13 13 13 13 14 15 17 17 18 18 19 19 20 20 21 22 23 23 24 24 25 26 26 27 27 27 28 28 29 30 31 32 33 34 34 34 34 34 35 36 36 36 37 37
14 14 14 14 14 15 16 17 17 18 19 19 20 20 20 21 21 22 23 24 24 25 26 27 27 28 28 29 29 29 30 31 32 32 33 33 34 34 34 35 35 36 36 37
14 15 15 15 15 15 15 16 16 17 18 18 19 20 20 21 21 21 22 23 23 24 25 26 27 27 27 28 28 28 29 30 31 32 32 33 33 34 34 34 35 35 36 37
14 15 15 15 15 15 15 15 16 17 18 18 19 20 20 21 22 22 22 23 23 23 23 24 25 26 27 28 28 29 29 29 30 31 32 33 34 34 34 35 35 36 36 37
14 14 14 15 15 15 15 15 16 17 18 18 19 19 20 20 21 22 22 23 23 23 23 24 25 26 27 28 28 29 29 30 30 31 31 32 33 34 34 35 36 36 37 38
13 13 13 14 15 15 15 16 16 17 18 18 18 19 20 20 21 21 22 23 23 23 23 24 25 26 26 27 27 28 28 29 29 30 30 31 31 32 33 34 34 35 36 36
13 13 13 13 14 14 15 16 16 16 17 17 18 18 19 19 20 20 20 21 22 23 24 24 24 25 25 26 27 27 27 28 28 29 30 30 30 31 31 32 32 33 33 34
13 14 13 13 13 14 15 15 16 16 17 17 17 17 18 19 19 19 20 20 21 21 22 23 23 24 24 25 26 26 27 28 29 29 29 29 30 29 30 30 31 31 32 33
14 14 14 14 14 14 14 15 15 16 17 18 18 18 18 18 19 19 20 21 21 21 21 22 22 23 24 24 25 26 26 27 27 28 28 28 29 29 29 30 30 31 31 32
15 15 14 14 14 14 14 14 15 15 16 17 17 18 18 19 19 19 20 20 21 21 22 22 23 23 24 24 25 25 26 26 26 26 26 27 28 28 29 29 30 30 30 31
16 15 15 14 14 14 15 15 15 15 15 16 17 17 18 18 19 20 20 20 20 21 21 21 22 23 23 24 25 25 25 25 25 25 26 26 27 27 28 28 29 29 30 30
16 16 15 15 14 14 14 14 14 14 15 15 16 16 16 16 18 19 20 20 21 21 21 22 22 22 23 24 24 24 24 25 25 25 26 26 27 28 28 28 28 29 29 29
17 17 16 16 16 15 15 15 15 14 15 15 16 17 17 17 17 18 19 20 21 22 23 23 23 23 23 23 24 24 24 25 26 26 26 27 27 27 28 28 28 29 29 29
Wind_Direction
240 235 227 224 221 220 220 223 224 222 221 221 226 228 229 229 230 231 231 232 231 231 232 233 233 235 235 236 236 237 237 237 238 239 239 240 241 242 243 244 245 246 247 247
241 237 229 226 222 221 221 221 225 227 227 226 229 230 231 232 232 233 233 233 234 234 233 235 235 235 237 237 237 238 238 238 239 239 239 240 241 242 243 244 245 247 249 249
245 240 232 230 226 225 224 224 228 231 231 231 233 234 235 235 236 236 236 236 235 236 236 236 237 237 237 238 238 239 239 239 239 239 240 241 242 242 243 245 246 248 249 251
247 240 234 228 227 227 227 229 232 232 232 231 231 233 235 236 236 237 238 238 237 237 237 236 236 237 238 239 239 240 240 240 240 240 241 241 242 243 244 245 246 248 250 251
251 242 234 228 229 228 226 230 235 233 232 231 232 233 235 236 236 237 238 239 239 238 238 237 236 236 237 238 239 240 241 240 240 240 241 242 242 243 245 246 247 248 249 251
256 250 240 231 232 232 231 232 233 232 231 231 232 233 234 236 237 237 238 239 239 239 239 239 238 237 237 238 239 241 242 241 241 241 242 242 243 244 244 246 247 247 248 250
257 252 243 236 235 233 234 232 230 231 232 231 231 233 233 234 236 238 238 238 239 240 240 240 239 238 237 238 240 241 242 243 243 243 243 243 243 244 244 245 246 247 248 250
262 255 248 239 237 235 234 232 230 231 234 235 234 234 236 237 237 239 239 239 239 239 239 240 240 239 239 239 240 241 243 243 243 244 244 244 244 244 244 245 246 247 248 249
268 260 253 246 242 237 235 235 232 232 235 236 237 238 239 240 240 240 241 242 242 240 240 240 240 239 238 238 238 239 241 242 243 244 244 245 244 243 244 245 246 247 248 249
271 261 255 250 246 243 240 238 237 235 235 236 237 238 239 241 242 242 242 242 242 242 241 240 239 239 238 238 238 239 240 240 241 243 243 244 244 244 245 246 248 248 249 250
271 263 256 252 252 250 246 242 239 238 238 238 238 239 241 242 243 242 242 242 242 243 243 241 239 238 239 239 239 239 241 242 243 242 243 244 244 245 246 247 248 248 249 250
271 264 258 253 253 252 250 248 244 241 240 241 241 241 242 243 243 243 244 244 243 243 242 241 240 239 239 239 240 241 243 244 245 244 243 244 244 245 246 248 249 249 249 251
273 265 260 256 253 253 253 251 248 246 244 243 244 243 242 243 245 246 247 245 244 243 241 241 241 240 238 238 239 241 242 244 245 245 245 245 245 245 246 248 249 249 250 251
277 269 264 259 256 255 256 255 253 250 247 247 247 246 245 245 245 247 248 246 244 243 242 242 243 241 239 239 240 241 242 244 244 245 245 246 246 246 246 247 249 249 250 251
280 273 268 264 260 257 256 256 255 254 251 249 249 249 248 248 248 248 248 246 245 244 243 243 243 243 242 242 243 243 244 244 244 245 245 246 247 248 248 249 249 249 250 252
281 276 272 268 264 260 258 258 257 254 251 249 248 248 248 249 250 250 249 247 246 245 244 244 244 244 244 244 245 245 244 243 243 244 245 247 249 249 250 250 251 251 252 253
279 275 272 271 269 265 260 258 255 251 251 251 250 249 249 250 251 253 252 250 249 248 246 245 244 244 244 245 245 245 245 244 244 244 246 248 250 252 253 253 253 253 254 254
281 277 274 274 269 266 263 259 255 253 254 254 254 253 251 250 251 253 254 252 251 250 248 247 245 244 244 244 244 244 246 247 248 248 249 251 252 253 255 255 255 255 256 256
287 283 279 278 274 269 264 260 256 255 254 255 254 253 252 253 254 254 254 252 250 248 247 247 246 245 246 246 245 246 248 249 249 250 252 254 255 256 256 256 257 257 257 257
294 288 284 280 277 273 269 266 263 260 257 255 254 254 255 255 255 255 255 253 251 248 248 248 247 246 247 247 247 248 249 250 251 253 255 256 257 257 258 257 257 257 257 258
296 292 288 285 279 276 274 270 267 262 259 257 255 254 254 255 255 256 256 253 251 250 250 249 248 247 247 248 249 250 251 252 254 255 256 256 257 257 257 257 257 256 257 258
298 293 289 286 281 278 276 274 270 265 260 258 256 256 257 257 257 257 255 252 251 252 252 250 249 249 250 251 252 252 253 254 256 256 256 256 256 256 257 257 257 257 257 258
301 295 290 287 284 281 279 277 273 268 263 259 257 258 259 259 259 259 258 255 253 254 253 252 252 253 253 254 255 255 254 255 256 256 256 257 258 257 257 257 258 259 259 259
305 299 294 289 286 284 281 278 276 271 266 262 259 259 260 261 261 260 259 258 255 254 254 254 255 255 255 255 256 255 256 257 258 258 259 259 259 259 258 258 259 259 259 260
305 301 296 291 288 286 284 281 278 273 268 265 263 262 262 261 261 261 259 259 257 255 256 257 257 257 258 258 257 258 259 260 261 262 262 261 261 260 259 259 260 260 260 260
304 300 296 292 289 288 287 284 282 277 271 267 265 265 265 263 261 260 258 258 257 257 257 258 259 259 260 260 259 261 261 261 262 263 264 264 262 261 261 261 262 262 262 262
301 298 294 291 289 288 287 286 283 280 275 269 268 268 267 267 267 265 263 262 261 260 260 259 259 260 261 260 260 262 263 264 264 265 265 264 263 262 262 263 263 263 264 265
Height
5501 5503 5504 5507 5511 5514 5517 5521 5525 5529 5532 5537 5540 5545 5549 5554 5558 5563 5568 5572 5577 5582 5588 5593 5597 5602 5606 5611 5615 5619 5624 5628 5633 5637 5641 5645 5649 5652 5656 5659 5662 5665 5667 5670
5498 5499 5500 5503 5506 5509 5512 5516 5520 5523 5527 5531 5534 5538 5542 5546 5550 5555 5559 5564 5568 5573 5578 5583 5587 5592 5596 5600 5605 5609 5613 5618 5622 5626 5630 5634 5638 5642 5645 5648 5651 5654 5657 5660
5494 5495 5496 5499 5502 5504 5507 5511 5514 5517 5522 5525 5528 5531 5535 5539 5543 5547 5551 5555 5559 5564 5568 5573 5577 5582 5586 5590 5594 5598 5603 5607 5611 5615 5619 5623 5627 5631 5634 5638 5641 5643 5646 5649
5490 5492 5492 5497 5497 5499 5502 5505 5509 5512 5515 5518 5522 5525 5528 5531 5535 5539 5542 5546 5550 5554 5559 5563 5567 5572 5576 5580 5584 5588 5592 5596 5600 5604 5608 5612 5616 5619 5623 5626 5629 5632 5635 5637
5486 5486 5488 5491 5492 5494 5497 5500 5502 5506 5509 5512 5515 5518 5521 5524 5527 5531 5534 5538 5541 5545 5549 5553 5557 5562 5566 5570 5573 5577 5581 5585 5589 5593 5597 5601 5604 5608 5611 5614 5617 5620 5623 5626
5481 5482 5484 5487 5488 5489 5493 5495 5497 5499 5502 5505 5508 5512 5515 5517 5520 5523 5526 5529 5533 5536 5539 5543 5547 5551 5556 5560 5563 5567 5570 5574 5578 5582 5585 5589 5593 5596 5599 5602 5606 5609 5612 5614
5477 5478 5479 5481 5483 5485 5489 5490 5491 5493 5495 5498 5501 5505 5508 5510 5512 5515 5518 5521 5524 5527 5530 5534 5537 5541 5545 5549 5553 5556 5560 5563 5567 5571 5574 5578 5581 5585 5588 5591 5594 5597 5600 5603
5474 5474 5477 5476 5477 5480 5482 5483 5485 5487 5489 5492 5494 5497 5500 5502 5505 5507 5509 5512 5515 5518 5521 5524 5528 5532 5535 5539 5543 5546 5550 5553 5556 5560 5563 5567 5570 5573 5576 5580 5583 5586 5589 5591
5471 5472 5471 5471 5472 5474 5476 5477 5479 5481 5483 5485 5488 5490 5493 5495 5498 5500 5502 5504 5506 5509 5512 5515 5518 5522 5526 5529 5533 5536 5540 5543 5546 5549 5552 5555 5559 5562 5565 5568 5571 5574 5577 5580
5466 5467 5467 5467 5468 5469 5470 5472 5473 5475 5477 5479 5481 5483 5486 5488 5490 5493 5495 5497 5499 5501 5503 5506 5509 5513 5516 5520 5523 5527 5530 5533 5536 5539 5542 5545 5548 5551 5554 5557 5560 5563 5566 5569
5463 5463 5463 5463 5464 5464 5465 5466 5468 5469 5471 5473 5475 5477 5479 5481 5483 5485 5487 5489 5491 5493 5495 5498 5500 5503 5507 5510 5514 5517 5520 5523 5526 5529 5531 5534 5537 5540 5543 5547 5549 5552 5555 5557
5459 5459 5458 5459 5459 5460 5460 5461 5462 5464 5465 5467 5469 5471 5473 5474 5476 5478 5480 5481 5483 5485 5487 5489 5492 5494 5498 5501 5504 5508 5511 5514 5516 5519 5521 5524 5527 5530 5532 5535 5538 5540 5543 5545
5455 5454 5453 5454 5454 5454 5455 5456 5457 5458 5459 5461 5462 5464 5466 5468 5469 5471 5472 5474 5476 5478 5480 5482 5484 5486 5489 5492 5495 5498 5501 5504 5506 5509 5512 5515 5517 5520 5522 5525 5526 5529 5532 5534
5450 5450 5449 5449 5449 5450 5450 5451 5452 5453 5454 5455 5456 5457 5459 5461 5462 5464 5465 5467 5468 5470 5472 5474 5476 5478 5481 5483 5486 5489 5491 5494 5497 5500 5502 5505 5507 5509 5512 5514 5516 5518 5521 5523
5445 5445 5445 5444 5444 5444 5445 5445 5446 5447 5448 5449 5450 5451 5452 5454 5455 5457 5458 5459 5461 5463 5465 5467 5469 5471 5473 5475 5477 5480 5482 5485 5488 5490 5493 5495 5497 5499 5501 5504 5506 5508 5510 5512
5441 5440 5440 5439 5439 5439 5439 5440 5441 5441 5442 5443 5444 5445 5446 5447 5448 5450 5451 5452 5454 5456 5457 5459 5461 5463 5465 5467 5469 5472 5474 5476 5479 5481 5483 5485 5487 5489 5491 5493 5495 5497 5500 5501
5436 5436 5435 5435 5434 5434 5434 5434 5434 5435 5436 5437 5438 5439 5440 5441 5442 5443 5444 5445 5447 5448 5450 5451 5453 5455 5457 5459 5461 5464 5466 5468 5470 5472 5474 5476 5478 5479 5481 5483 5485 5487 5488 5490
5431 5430 5430 5429 5429 5428 5428 5428 5429 5429 5430 5431 5432 5432 5433 5434 5435 5436 5437 5438 5439 5441 5442 5444 5446 5447 5449 5451 5454 5456 5457 5459 5461 5463 5465 5466 5468 5470 5471 5472 5474 5476 5477 5479
5426 5425 5424 5424 5423 5423 5423 5423 5423 5424 5424 5425 5426 5426 5427 5427 5428 5429 5430 5431 5432 5433 5435 5436 5438 5440 5442 5444 5445 5447 5449 5451 5452 5454 5455 5457 5458 5459 5461 5462 5463 5465 5466 5468
5422 5421 5420 5419 5418 5417 5417 5417 5418 5418 5418 5418 5419 5420 5420 5421 5421 5422 5422 5423 5424 5426 5427 5429 5430 5432 5434 5436 5437 5439 5440 5442 5443 5445 5446 5447 5448 5449 5450 5451 5453 5454 5455 5457
5418 5416 5415 5414 5413 5413 5412 5412 5412 5412 5412 5412 5413 5413 5414 5414 5414 5415 5415 5416 5417 5419 5420 5421 5423 5424 5426 5428 5430 5431 5432 5434 5435 5436 5437 5438 5439 5440 5440 5441 5442 5444 5445 5446
5414 5412 5411 5410 5409 5408 5407 5407 5407 5406 5406 5407 5407 5407 5407 5408 5408 5409 5409 5410 5411 5412 5413 5414 5415 5417 5418 5420 5421 5423 5424 5425 5426 5427 5428 5428 5429 5430 5431 5432 5433 5434 5435 5436
5409 5408 5406 5405 5404 5403 5402 5402 5401 5401 5401 5401 5401 5402 5402 5402 5402 5403 5403 5404 5404 5405 5406 5407 5408 5410 5411 5413 5414 5415 5415 5416 5417 5418 5418 5419 5420 5421 5422 5423 5423 5424 5425 5426
5405 5403 5402 5400 5399 5398 5397 5397 5396 5395 5395 5395 5395 5396 5396 5396 5396 5396 5397 5397 5398 5399 5400 5401 5402 5403 5404 5405 5406 5407 5407 5408 5408 5409 5410 5410 5411 5411 5412 5413 5414 5414 5415 5416
5401 5399 5397 5396 5395 5394 5393 5392 5391 5390 5390 5390 5390 5390 5390 5390 5390 5390 5390 5391 5392 5392 5393 5394 5395 5396 5397 5397 5398 5398 5399 5399 5400 5400 5401 5401 5402 5402 5403 5403 5404 5405 5405 5406
5396 5394 5393 5391 5390 5389 5388 5387 5386 5385 5384 5384 5384 5384 5384 5384 5384 5384 5384 5384 5385 5386 5386 5387 5388 5388 5389 5389 5390 5390 5391 5391 5391 5392 5392 5392 5392 5393 5393 5394 5395 5395 5396 5396
5391 5389 5387 5386 5385 5383 5382 5381 5380 5380 5379 5379 5378 5378 5378 5378 5378 5378 5378 5378 5378 5379 5379 5380 5380 5381 5381 5381 5382 5382 5382 5383 5383 5383 5383 5383 5383 5384 5384 5385 5385 5386 5386 5386